Zurück zum Katalog

FENGYUN 1C DEB

AktivSSO
NORAD 35245·DEBRIS·🇨🇳 China

Gestartet May 10, 1999 von Taiyuan Satellite Launch Center

Loading…

Nächste Überflüge (nächste 24 Stunden)

TLE

AktuellSource: Space-Track

Epoche: Sep 13, 2026, 17:56 UTC

1 35245U 99025DRD 26256.74774743  .00002019  00000-0  10577-2 0  9992
2 35245  99.0794 351.5682 0058707 214.1383 298.4426 14.14586450916636

Verfolge FENGYUN 1C DEB in Echtzeit mit AllMySat

Download on the App Store